This is the latest recevied weather packets stored in our database for station/object M0TJX-1. If no packets are shown the sender has not sent any weather packets the latest 10 day(s).
| Time | Temp. | Humidity | Pressure | Rain* | Wind** | Luminosity | Snow |
|---|---|---|---|---|---|---|---|
| 1777535904 | 12.22° C | 68% | 1020.7 hPa | 0 mm | - | - | - |
| 1777535004 | 11.67° C | 70% | 1020.8 hPa | 0 mm | - | - | - |
| 1777534104 | 11.11° C | 71% | 1021.2 hPa | 0 mm | - | - | - |
| 1777533204 | 10° C | 74% | 1021 hPa | 0 mm | - | - | - |
| 1777532304 | 9.44° C | 75% | 1021 hPa | 0 mm | - | - | - |
| 1777531404 | 9.44° C | 76% | 1021 hPa | 0 mm | - | - | - |
| 1777530504 | 8.89° C | 78% | 1021.1 hPa | 0 mm | - | - | - |
| 1777529604 | 8.33° C | 79% | 1021 hPa | 0 mm | - | - | - |
| 1777528704 | 8.33° C | 78% | 1021.2 hPa | 0 mm | - | - | - |
| 1777527804 | 7.78° C | 79% | 1021 hPa | 0 mm | - | - | - |
| 1777526904 | 7.78° C | 79% | 1021 hPa | 0 mm | - | - | - |
| 1777526004 | 7.78° C | 79% | 1020.9 hPa | 0 mm | - | - | - |
| 1777525104 | 7.78° C | 78% | 1021 hPa | 0 mm | - | - | - |
| 1777524204 | 7.78° C | 78% | 1021.1 hPa | 0 mm | - | - | - |
| 1777523304 | 7.78° C | 77% | 1021 hPa | 0 mm | - | - | - |
| 1777522404 | 7.78° C | 77% | 1021.1 hPa | 0 mm | - | - | - |
| 1777521504 | 7.78° C | 76% | 1021.2 hPa | 0 mm | - | - | - |
| 1777520604 | 8.33° C | 76% | 1021.1 hPa | 0 mm | - | - | - |
| 1777519704 | 8.33° C | 76% | 1021.3 hPa | 0 mm | - | - | - |
| 1777518804 | 8.33° C | 76% | 1021.3 hPa | 0 mm | - | - | - |
| 1777517904 | 8.33° C | 75% | 1021.6 hPa | 0 mm | - | - | - |
| 1777517004 | 8.33° C | 75% | 1021.6 hPa | 0 mm | - | - | - |
| 1777516104 | 8.33° C | 74% | 1021.5 hPa | 0 mm | - | - | - |
| 1777515204 | 8.33° C | 74% | 1021.5 hPa | 0 mm | - | - | - |
| 1777514304 | 8.33° C | 73% | 1021.6 hPa | 0 mm | - | - | - |
* Rain latest hour (hover to see other rain measurements)
** Current wind speed in m/s (hover to see current wind gust speed)